NOAA-15
1 25338U 98030A   06250.40988310  .00000085  00000-0  54654-4 0  6535
2 25338 098.5195 250.2657 0011244 130.6001 229.6186 14.24601536432421
RESURS
1 25394U 98043A   06249.78530806 -.00000012  00000-0  13118-4 0 04756
2 25394 098.4874 309.8949 0001037 333.3150 026.7976 14.24110690424012
FENGYUN1
1 25730U 99025A   06250.61517903 -.00000106  00000-0 -34717-4 0  8182
2 25730 098.6314 240.0663 0013615 267.9519 092.0110 14.11813968377648
OKEAN-0
1 25860U 99039A   06250.72466743  .00000080  00000-0  19508-4 0  8458
2 25860 097.7336 261.2119 0000865 111.0758 249.0539 14.73386707383903
NOAA-16
1 26536U 00055A   06250.39397280  .00000337  00000-0  20752-3 0   337
2 26536 099.0749 218.0121 0009823 248.9517 111.0619 14.12368280307188
NOAA-17
1 27453U 02032A   06250.32217389  .00000023  00000-0  28885-4 0   526
2 27453 098.6155 320.9166 0011635 192.8096 167.2810 14.23806633218467
NOAA-18
1 28654U 05018A   06250.32372121  .00000380  00000-0  23564-3 0  6242
2 28654 098.7915 191.8584 0014624 352.3342 007.7615 14.10990028 66968
HUBBLE
1 20580U 90037B   06249.39886175  .00000454  00000-0  22550-4 0 07126
2 20580 028.4692 240.4648 0003474 325.8521 034.1846 15.00087268697308
UARS
1 21701U 91063B   06249.95350134  .00006505  00000-0  12215-3 0 08664
2 21701 056.9759 099.8207 0102037 010.0888 350.2177 15.44505766821938
PO-34
1 25520U 98064B   06249.93885905  .00000718  00000-0  25883-4 0 05610
2 25520 028.4601 204.2085 0005227 053.0115 307.0957 15.16781491434475
ISS
1 25544U 98067A   06250.93043191  .00014962  00000-0  99164-4 0  6265
2 25544 051.6324 121.1990 0011163 313.9612 167.8171 15.75700097446212
OO-38
1 26063U 00004C   06250.73268566  .00000006  00000-0  22431-4 0  7111
2 26063 100.1903 196.6423 0036563 234.7487 125.0268 14.35776136346518
NO-45
1 26932U 01043D   06249.94280226 -.00000021  00000-0  24075-4 0 04153
2 26932 067.0551 156.8131 0007231 237.9445 122.0954 14.29533965257655
UWE-1
1 28892U 05043C   06250.60950331  .00000149  00000-0  41296-4 0  5458
2 28892 098.1530 147.4525 0016517 276.4247 083.5069 14.59391412 45994
CO-58
1 28895U 05043F   06250.73485969  .00000155  00000-0  42412-4 0  5307
2 28895 098.1507 147.6830 0017100 275.5760 084.3501 14.59442163 45890
NCUBE2
1 28897U 05043H   06249.26374724  .00000138  00000-0  38823-4 0  1152
2 28897 098.1525 146.2174 0016539 282.7486 077.1854 14.59597696 37959
